Year,Month,Day,Hour,Minute,Value (Times are PST for temperature in C)
2010,08,17,00,00,20.20
2010,08,17,00,01,20.20
2010,08,17,00,02,20.20
2010,08,17,00,03,20.20
2010,08,17,00,04,20.20
2010,08,17,00,05,20.20
2010,08,17,00,06,20.20
2010,08,17,00,07,20.20
2010,08,17,00,08,20.20
2010,08,17,00,09,20.20
2010,08,17,00,10,20.10
2010,08,17,00,11,20.10
2010,08,17,00,12,20.10
2010,08,17,00,13,20.10
2010,08,17,00,14,20.10
2010,08,17,00,15,20.10
2010,08,17,00,16,20.10
2010,08,17,00,17,20.20
2010,08,17,00,18,20.20
2010,08,17,00,19,20.20
2010,08,17,00,20,20.20
2010,08,17,00,21,20.20
2010,08,17,00,22,20.20
2010,08,17,00,23,20.20
2010,08,17,00,24,20.20
2010,08,17,00,25,20.20
2010,08,17,00,26,20.20
2010,08,17,00,27,20.20
2010,08,17,00,28,20.20
2010,08,17,00,29,20.10
2010,08,17,00,30,20.10
2010,08,17,00,31,20.10
2010,08,17,00,32,20.10
2010,08,17,00,33,20.00
2010,08,17,00,34,20.00
2010,08,17,00,35,20.00
2010,08,17,00,36,20.00
2010,08,17,00,37,20.00
2010,08,17,00,38,20.00
2010,08,17,00,39,19.90
2010,08,17,00,40,19.90
2010,08,17,00,41,19.90
2010,08,17,00,42,19.90
2010,08,17,00,43,19.90
2010,08,17,00,44,19.90
2010,08,17,00,45,19.90
2010,08,17,00,46,19.90
2010,08,17,00,47,19.90
2010,08,17,00,48,19.90
2010,08,17,00,49,19.80
2010,08,17,00,50,19.80
2010,08,17,00,51,19.80
2010,08,17,00,52,19.80
2010,08,17,00,53,19.80
2010,08,17,00,54,19.80
2010,08,17,00,55,19.70
2010,08,17,00,56,19.70
2010,08,17,00,57,19.70
2010,08,17,00,58,19.70
2010,08,17,00,59,19.70
2010,08,17,01,00,19.70
2010,08,17,01,01,19.70
2010,08,17,01,02,19.70
2010,08,17,01,03,19.70
2010,08,17,01,04,19.70
2010,08,17,01,05,19.70
2010,08,17,01,06,19.70
2010,08,17,01,07,19.60
2010,08,17,01,08,19.60
2010,08,17,01,09,19.60
2010,08,17,01,10,19.60
2010,08,17,01,11,19.60
2010,08,17,01,12,19.50
2010,08,17,01,13,19.50
2010,08,17,01,14,19.40
2010,08,17,01,15,19.40
2010,08,17,01,16,19.40
2010,08,17,01,17,19.30
2010,08,17,01,18,19.30
2010,08,17,01,19,19.30
2010,08,17,01,20,19.30
2010,08,17,01,21,19.30
2010,08,17,01,22,19.30
2010,08,17,01,23,19.30
2010,08,17,01,24,19.30
2010,08,17,01,25,19.30
2010,08,17,01,26,19.20
2010,08,17,01,27,19.20
2010,08,17,01,28,19.20
2010,08,17,01,29,19.20
2010,08,17,01,30,19.10
2010,08,17,01,31,19.10
2010,08,17,01,32,19.10
2010,08,17,01,33,19.10
2010,08,17,01,34,19.00
2010,08,17,01,35,19.00
2010,08,17,01,36,19.00
2010,08,17,01,37,19.00
2010,08,17,01,38,18.90
2010,08,17,01,39,18.90
2010,08,17,01,40,18.90
2010,08,17,01,41,18.90
2010,08,17,01,42,18.90
2010,08,17,01,43,18.80
2010,08,17,01,44,18.80
2010,08,17,01,45,18.80
2010,08,17,01,46,18.70
2010,08,17,01,47,18.70
2010,08,17,01,48,18.70
2010,08,17,01,49,18.70
2010,08,17,01,50,18.60
2010,08,17,01,51,18.60
2010,08,17,01,52,18.60
2010,08,17,01,53,18.60
2010,08,17,01,54,18.60
2010,08,17,01,55,18.60
2010,08,17,01,56,18.60
2010,08,17,01,57,18.50
2010,08,17,01,58,18.50
2010,08,17,01,59,18.50
2010,08,17,02,00,18.50
2010,08,17,02,01,18.40
2010,08,17,02,02,18.40
2010,08,17,02,03,18.40
2010,08,17,02,04,18.40
2010,08,17,02,05,18.40
2010,08,17,02,06,18.40
2010,08,17,02,07,18.40
2010,08,17,02,08,18.30
2010,08,17,02,09,18.30
2010,08,17,02,10,18.30
2010,08,17,02,11,18.30
2010,08,17,02,12,18.30
2010,08,17,02,13,18.20
2010,08,17,02,14,18.20
2010,08,17,02,15,18.20
2010,08,17,02,16,18.20
2010,08,17,02,17,18.20
2010,08,17,02,18,18.10
2010,08,17,02,19,18.10
2010,08,17,02,20,18.10
2010,08,17,02,21,18.10
2010,08,17,02,22,18.00
2010,08,17,02,23,18.00
2010,08,17,02,24,17.90
2010,08,17,02,25,17.90
2010,08,17,02,26,17.90
2010,08,17,02,27,17.80
2010,08,17,02,28,17.80
2010,08,17,02,29,17.80
2010,08,17,02,30,17.80
2010,08,17,02,31,17.80
2010,08,17,02,32,17.80
2010,08,17,02,33,17.70
2010,08,17,02,34,17.70
2010,08,17,02,35,17.70
2010,08,17,02,36,17.70
2010,08,17,02,37,17.70
2010,08,17,02,38,17.70
2010,08,17,02,39,17.70
2010,08,17,02,40,17.70
2010,08,17,02,41,17.70
2010,08,17,02,42,17.80
2010,08,17,02,43,17.80
2010,08,17,02,44,17.70
2010,08,17,02,45,17.70
2010,08,17,02,46,17.70
2010,08,17,02,47,17.70
2010,08,17,02,48,17.70
2010,08,17,02,49,17.60
2010,08,17,02,50,17.60
2010,08,17,02,51,17.60
2010,08,17,02,52,17.60
2010,08,17,02,53,17.50
2010,08,17,02,54,17.50
2010,08,17,02,55,17.50
2010,08,17,02,56,17.40
2010,08,17,02,57,17.40
2010,08,17,02,58,17.40
2010,08,17,02,59,17.40
2010,08,17,03,00,17.30
2010,08,17,03,01,17.30
2010,08,17,03,02,17.30
2010,08,17,03,03,17.20
2010,08,17,03,04,17.20
2010,08,17,03,05,17.20
2010,08,17,03,06,17.10
2010,08,17,03,07,17.10
2010,08,17,03,08,17.10
2010,08,17,03,09,17.10
2010,08,17,03,10,17.10
2010,08,17,03,11,17.10
2010,08,17,03,12,17.00
2010,08,17,03,13,17.00
2010,08,17,03,14,17.00
2010,08,17,03,15,16.90
2010,08,17,03,16,16.90
2010,08,17,03,17,16.90
2010,08,17,03,18,16.80
2010,08,17,03,19,16.80
2010,08,17,03,20,16.80
2010,08,17,03,21,16.80
2010,08,17,03,22,16.80
2010,08,17,03,23,16.80
2010,08,17,03,24,16.80
2010,08,17,03,25,16.80
2010,08,17,03,26,16.80
2010,08,17,03,27,16.70
2010,08,17,03,28,16.70
2010,08,17,03,29,16.60
2010,08,17,03,30,16.60
2010,08,17,03,31,16.60
2010,08,17,03,32,16.60
2010,08,17,03,33,16.60
2010,08,17,03,34,16.60
2010,08,17,03,35,16.60
2010,08,17,03,36,16.60
2010,08,17,03,37,16.50
2010,08,17,03,38,16.50
2010,08,17,03,39,16.50
2010,08,17,03,40,16.50
2010,08,17,03,41,16.50
2010,08,17,03,42,16.40
2010,08,17,03,43,16.40
2010,08,17,03,44,16.40
2010,08,17,03,45,16.40
2010,08,17,03,46,16.40
2010,08,17,03,47,16.40
2010,08,17,03,48,16.30
2010,08,17,03,49,16.30
2010,08,17,03,50,16.30
2010,08,17,03,51,16.30
2010,08,17,03,52,16.30
2010,08,17,03,53,16.30
2010,08,17,03,54,16.30
2010,08,17,03,55,16.30
2010,08,17,03,56,16.30
2010,08,17,03,57,16.30
2010,08,17,03,58,16.30
2010,08,17,03,59,16.30
2010,08,17,04,00,16.20
2010,08,17,04,01,16.20
2010,08,17,04,02,16.20
2010,08,17,04,03,16.20
2010,08,17,04,04,16.20
2010,08,17,04,05,16.20
2010,08,17,04,06,16.20
2010,08,17,04,07,16.20
2010,08,17,04,08,16.20
2010,08,17,04,09,16.20
2010,08,17,04,10,16.20
2010,08,17,04,11,16.10
2010,08,17,04,12,16.10
2010,08,17,04,13,16.10
2010,08,17,04,14,16.10
2010,08,17,04,15,16.10
2010,08,17,04,16,16.10
2010,08,17,04,17,16.10
2010,08,17,04,18,16.10
2010,08,17,04,19,16.10
2010,08,17,04,20,16.00
2010,08,17,04,21,16.00
2010,08,17,04,22,16.00
2010,08,17,04,23,16.00
2010,08,17,04,24,16.00
2010,08,17,04,25,15.90
2010,08,17,04,26,15.90
2010,08,17,04,27,15.90
2010,08,17,04,28,15.90
2010,08,17,04,29,15.90
2010,08,17,04,30,15.90
2010,08,17,04,31,15.80
2010,08,17,04,32,15.80
2010,08,17,04,33,15.80
2010,08,17,04,34,15.80
2010,08,17,04,35,15.80
2010,08,17,04,36,15.80
2010,08,17,04,37,15.80
2010,08,17,04,38,15.80
2010,08,17,04,39,15.80
2010,08,17,04,40,15.80
2010,08,17,04,41,15.80
2010,08,17,04,42,15.80
2010,08,17,04,43,15.70
2010,08,17,04,44,15.70
2010,08,17,04,45,15.70
2010,08,17,04,46,15.70
2010,08,17,04,47,15.70
2010,08,17,04,48,15.70
2010,08,17,04,49,15.70
2010,08,17,04,50,15.60
2010,08,17,04,51,15.60
2010,08,17,04,52,15.60
2010,08,17,04,53,15.60
2010,08,17,04,54,15.60
2010,08,17,04,55,15.60
2010,08,17,04,56,15.60
2010,08,17,04,57,15.60
2010,08,17,04,58,15.60
2010,08,17,04,59,15.60
2010,08,17,05,00,15.60
2010,08,17,05,01,15.60
2010,08,17,05,02,15.60
2010,08,17,05,03,15.60
2010,08,17,05,04,15.60
2010,08,17,05,05,15.60
2010,08,17,05,06,15.60
2010,08,17,05,07,15.60
2010,08,17,05,08,15.60
2010,08,17,05,09,15.60
2010,08,17,05,10,15.60
2010,08,17,05,11,15.60
2010,08,17,05,12,15.70
2010,08,17,05,13,15.70
2010,08,17,05,14,15.70
2010,08,17,05,15,15.70
2010,08,17,05,16,15.70
2010,08,17,05,17,15.70
2010,08,17,05,18,15.70
2010,08,17,05,19,15.70
2010,08,17,05,20,15.60
2010,08,17,05,21,15.60
2010,08,17,05,22,15.60
2010,08,17,05,23,15.60
2010,08,17,05,24,15.60
2010,08,17,05,25,15.50
2010,08,17,05,26,15.50
2010,08,17,05,27,15.50
2010,08,17,05,28,15.40
2010,08,17,05,29,15.40
2010,08,17,05,30,15.30
2010,08,17,05,31,15.30
2010,08,17,05,32,15.30
2010,08,17,05,33,15.30
2010,08,17,05,34,15.20
2010,08,17,05,35,15.20
2010,08,17,05,36,15.20
2010,08,17,05,37,15.20
2010,08,17,05,38,15.20
2010,08,17,05,39,15.20
2010,08,17,05,40,15.20
2010,08,17,05,41,15.20
2010,08,17,05,42,15.20
2010,08,17,05,43,15.20
2010,08,17,05,44,15.20
2010,08,17,05,45,15.20
2010,08,17,05,46,15.20
2010,08,17,05,47,15.20
2010,08,17,05,48,15.20
2010,08,17,05,49,15.20
2010,08,17,05,50,15.20
2010,08,17,05,51,15.20
2010,08,17,05,52,15.20
2010,08,17,05,53,15.20
2010,08,17,05,54,15.20
2010,08,17,05,55,15.20
2010,08,17,05,56,15.20
2010,08,17,05,57,15.20
2010,08,17,05,58,15.20
2010,08,17,05,59,15.20
2010,08,17,06,00,15.20
2010,08,17,06,01,15.20
2010,08,17,06,02,15.20
2010,08,17,06,03,15.20
2010,08,17,06,04,15.20
2010,08,17,06,05,15.20
2010,08,17,06,06,15.20
2010,08,17,06,07,15.20
2010,08,17,06,08,15.20
2010,08,17,06,09,15.20
2010,08,17,06,10,15.20
2010,08,17,06,11,15.20
2010,08,17,06,12,15.20
2010,08,17,06,13,15.30
2010,08,17,06,14,15.30
2010,08,17,06,15,15.40
2010,08,17,06,16,15.40
2010,08,17,06,17,15.40
2010,08,17,06,18,15.50
2010,08,17,06,19,15.50
2010,08,17,06,20,15.60
2010,08,17,06,21,15.60
2010,08,17,06,22,15.60
2010,08,17,06,23,15.60
2010,08,17,06,24,15.60
2010,08,17,06,25,15.60
2010,08,17,06,26,15.60
2010,08,17,06,27,15.60
2010,08,17,06,28,15.60
2010,08,17,06,29,15.60
2010,08,17,06,30,15.60
2010,08,17,06,31,15.50
2010,08,17,06,32,15.50
2010,08,17,06,33,15.50
2010,08,17,06,34,15.40
2010,08,17,06,35,15.40
2010,08,17,06,36,15.40
2010,08,17,06,37,15.40
2010,08,17,06,38,15.40
2010,08,17,06,39,15.40
2010,08,17,06,40,15.40
2010,08,17,06,41,15.40
2010,08,17,06,42,15.40
2010,08,17,06,43,15.30
2010,08,17,06,44,15.30
2010,08,17,06,45,15.30
2010,08,17,06,46,15.30
2010,08,17,06,47,15.30
2010,08,17,06,48,15.40
2010,08,17,06,49,15.40
2010,08,17,06,50,15.40
2010,08,17,06,51,15.50
2010,08,17,06,52,15.60
2010,08,17,06,53,15.60
2010,08,17,06,54,15.70
2010,08,17,06,55,15.80
2010,08,17,06,56,15.80
2010,08,17,06,57,15.90
2010,08,17,06,58,15.90
2010,08,17,06,59,16.00
2010,08,17,07,00,16.00
2010,08,17,07,01,16.10
2010,08,17,07,02,16.10
2010,08,17,07,03,16.20
2010,08,17,07,04,16.20
2010,08,17,07,05,16.30
2010,08,17,07,06,16.30
2010,08,17,07,07,16.40
2010,08,17,07,08,16.40
2010,08,17,07,09,16.50
2010,08,17,07,10,16.50
2010,08,17,07,11,16.50
2010,08,17,07,12,16.50
2010,08,17,07,13,16.60
2010,08,17,07,14,16.50
2010,08,17,07,15,16.50
2010,08,17,07,16,16.50
2010,08,17,07,17,16.50
2010,08,17,07,18,16.60
2010,08,17,07,19,16.60
2010,08,17,07,20,16.70
2010,08,17,07,21,16.70
2010,08,17,07,22,16.80
2010,08,17,07,23,16.80
2010,08,17,07,24,16.80
2010,08,17,07,25,16.80
2010,08,17,07,26,16.80
2010,08,17,07,27,16.90
2010,08,17,07,28,16.90
2010,08,17,07,29,16.90
2010,08,17,07,30,17.00
2010,08,17,07,31,17.00
2010,08,17,07,32,17.10
2010,08,17,07,33,17.10
2010,08,17,07,34,17.10
2010,08,17,07,35,17.10
2010,08,17,07,36,17.10
2010,08,17,07,37,17.10
2010,08,17,07,38,17.20
2010,08,17,07,39,17.20
2010,08,17,07,40,17.20
2010,08,17,07,41,17.30
2010,08,17,07,42,17.30
2010,08,17,07,43,17.30
2010,08,17,07,44,17.40
2010,08,17,07,45,17.40
2010,08,17,07,46,17.50
2010,08,17,07,47,17.60
2010,08,17,07,48,17.60
2010,08,17,07,49,17.70
2010,08,17,07,50,17.70
2010,08,17,07,51,17.80
2010,08,17,07,52,17.90
2010,08,17,07,53,17.90
2010,08,17,07,54,17.90
2010,08,17,07,55,18.00
2010,08,17,07,56,18.00
2010,08,17,07,57,18.10
2010,08,17,07,58,18.10
2010,08,17,07,59,18.10
2010,08,17,08,00,18.20
2010,08,17,08,01,18.20
2010,08,17,08,02,18.20
2010,08,17,08,03,18.30
2010,08,17,08,04,18.40
2010,08,17,08,05,18.40
2010,08,17,08,06,18.50
2010,08,17,08,07,18.60
2010,08,17,08,08,18.60
2010,08,17,08,09,18.70
2010,08,17,08,10,18.80
2010,08,17,08,11,18.80
2010,08,17,08,12,18.90
2010,08,17,08,13,18.90
2010,08,17,08,14,18.90
2010,08,17,08,15,18.90
2010,08,17,08,16,18.90
2010,08,17,08,17,19.00
2010,08,17,08,18,19.00
2010,08,17,08,19,19.00
2010,08,17,08,20,19.10
2010,08,17,08,21,19.10
2010,08,17,08,22,19.10
2010,08,17,08,23,19.10
2010,08,17,08,24,19.10
2010,08,17,08,25,19.20
2010,08,17,08,26,19.20
2010,08,17,08,27,19.30
2010,08,17,08,28,19.40
2010,08,17,08,29,19.40
2010,08,17,08,30,19.50
2010,08,17,08,31,19.60
2010,08,17,08,32,19.60
2010,08,17,08,33,19.70
2010,08,17,08,34,19.80
2010,08,17,08,35,19.80
2010,08,17,08,36,19.90
2010,08,17,08,37,20.00
2010,08,17,08,38,20.00
2010,08,17,08,39,20.10
2010,08,17,08,40,20.20
2010,08,17,08,41,20.20
2010,08,17,08,42,20.30
2010,08,17,08,43,20.30
2010,08,17,08,44,20.40
2010,08,17,08,45,20.50
2010,08,17,08,46,20.50
2010,08,17,08,47,20.60
2010,08,17,08,48,20.60
2010,08,17,08,49,20.70
2010,08,17,08,50,20.70
2010,08,17,08,51,20.80
2010,08,17,08,52,20.80
2010,08,17,08,53,20.90
2010,08,17,08,54,21.00
2010,08,17,08,55,21.10
2010,08,17,08,56,21.20
2010,08,17,08,57,21.30
2010,08,17,08,58,21.30
2010,08,17,08,59,21.30
2010,08,17,09,00,21.40
2010,08,17,09,01,21.40
2010,08,17,09,02,21.50
2010,08,17,09,03,21.50
2010,08,17,09,04,21.50
2010,08,17,09,05,21.60
2010,08,17,09,06,21.60
2010,08,17,09,07,21.60
2010,08,17,09,08,21.60
2010,08,17,09,09,21.70
2010,08,17,09,10,21.70
2010,08,17,09,11,21.80
2010,08,17,09,12,21.80
2010,08,17,09,13,21.80
2010,08,17,09,14,21.70
2010,08,17,09,15,21.70
2010,08,17,09,16,21.70
2010,08,17,09,17,21.70
2010,08,17,09,18,21.70
2010,08,17,09,19,21.70
2010,08,17,09,20,21.70
2010,08,17,09,21,21.70
2010,08,17,09,22,21.70
2010,08,17,09,23,21.70
2010,08,17,09,24,21.70
2010,08,17,09,25,21.70
2010,08,17,09,26,21.60
2010,08,17,09,27,21.60
2010,08,17,09,28,21.60
2010,08,17,09,29,21.70
2010,08,17,09,30,21.70
2010,08,17,09,31,21.70
2010,08,17,09,32,21.70
2010,08,17,09,33,21.70
2010,08,17,09,34,21.80
2010,08,17,09,35,21.70
2010,08,17,09,36,21.70
2010,08,17,09,37,21.80
2010,08,17,09,38,21.80
2010,08,17,09,39,21.80
2010,08,17,09,40,21.80
2010,08,17,09,41,21.80
2010,08,17,09,42,21.80
2010,08,17,09,43,21.80
2010,08,17,09,44,21.90
2010,08,17,09,45,21.90
2010,08,17,09,46,21.90
2010,08,17,09,47,21.90
2010,08,17,09,48,21.90
2010,08,17,09,49,21.90
2010,08,17,09,50,21.90
2010,08,17,09,51,21.90
2010,08,17,09,52,21.90
2010,08,17,09,53,21.90
2010,08,17,09,54,21.90
2010,08,17,09,55,21.90
2010,08,17,09,56,22.00
2010,08,17,09,57,22.00
2010,08,17,09,58,22.10
2010,08,17,09,59,22.10
2010,08,17,10,00,22.20
2010,08,17,10,01,22.20
2010,08,17,10,02,22.20
2010,08,17,10,03,22.20
2010,08,17,10,04,22.20
2010,08,17,10,05,22.20
2010,08,17,10,06,22.30
2010,08,17,10,07,22.30
2010,08,17,10,08,22.30
2010,08,17,10,09,22.30
2010,08,17,10,10,22.30
2010,08,17,10,11,22.40
2010,08,17,10,12,22.50
2010,08,17,10,13,22.50
2010,08,17,10,14,22.50
2010,08,17,10,15,22.60
2010,08,17,10,16,22.60
2010,08,17,10,17,22.50
2010,08,17,10,18,22.40
2010,08,17,10,19,22.50
2010,08,17,10,20,22.50
2010,08,17,10,21,22.50
2010,08,17,10,22,22.50
2010,08,17,10,23,22.40
2010,08,17,10,24,22.30
2010,08,17,10,25,22.30
2010,08,17,10,26,22.20
2010,08,17,10,27,22.20
2010,08,17,10,28,22.20
2010,08,17,10,29,22.10
2010,08,17,10,30,22.10
2010,08,17,10,31,22.10
2010,08,17,10,32,22.10
2010,08,17,10,33,22.10
2010,08,17,10,34,22.00
2010,08,17,10,35,22.00
2010,08,17,10,36,22.10
2010,08,17,10,37,22.10
2010,08,17,10,38,22.10
2010,08,17,10,39,22.20
2010,08,17,10,40,22.20
2010,08,17,10,41,22.20
2010,08,17,10,42,22.20
2010,08,17,10,43,22.20
2010,08,17,10,44,22.20
2010,08,17,10,45,22.20
2010,08,17,10,46,22.20
2010,08,17,10,47,22.20
2010,08,17,10,48,22.20
2010,08,17,10,49,22.20
2010,08,17,10,50,22.20
2010,08,17,10,51,22.20
2010,08,17,10,52,22.20
2010,08,17,10,53,22.20
2010,08,17,10,54,22.30
2010,08,17,10,55,22.40
2010,08,17,10,56,22.40
2010,08,17,10,57,22.50
2010,08,17,10,58,22.50
2010,08,17,10,59,22.60
2010,08,17,11,00,22.60
2010,08,17,11,01,22.60
2010,08,17,11,02,22.60
2010,08,17,11,03,22.60
2010,08,17,11,04,22.70
2010,08,17,11,05,22.70
2010,08,17,11,06,22.70
2010,08,17,11,07,22.70
2010,08,17,11,08,22.70
2010,08,17,11,09,22.60
2010,08,17,11,10,22.60
2010,08,17,11,11,22.60
2010,08,17,11,12,22.70
2010,08,17,11,13,22.80
2010,08,17,11,14,22.80
2010,08,17,11,15,22.90
2010,08,17,11,16,23.00
2010,08,17,11,17,23.10
2010,08,17,11,18,23.20
2010,08,17,11,19,23.20
2010,08,17,11,20,23.30
2010,08,17,11,21,23.20
2010,08,17,11,22,23.30
2010,08,17,11,23,23.30
2010,08,17,11,24,23.40
2010,08,17,11,25,23.40
2010,08,17,11,26,23.40
2010,08,17,11,27,23.40
2010,08,17,11,28,23.50
2010,08,17,11,29,23.50
2010,08,17,11,30,23.60
2010,08,17,11,31,23.70
2010,08,17,11,32,23.70
2010,08,17,11,33,23.80
2010,08,17,11,34,23.90
2010,08,17,11,35,23.90
2010,08,17,11,36,24.00
2010,08,17,11,37,24.10
2010,08,17,11,38,24.10
2010,08,17,11,39,24.10
2010,08,17,11,40,24.10
2010,08,17,11,41,24.20
2010,08,17,11,42,24.30
2010,08,17,11,43,24.30
2010,08,17,11,44,24.20
2010,08,17,11,45,24.10
2010,08,17,11,46,23.90
2010,08,17,11,47,23.80
2010,08,17,11,48,23.80
2010,08,17,11,49,23.80
2010,08,17,11,50,23.80
2010,08,17,11,51,23.80
2010,08,17,11,52,23.70
2010,08,17,11,53,23.60
2010,08,17,11,54,23.60
2010,08,17,11,55,23.70
2010,08,17,11,56,23.80
2010,08,17,11,57,23.80
2010,08,17,11,58,23.90
2010,08,17,11,59,23.90
2010,08,17,12,00,24.00
2010,08,17,12,01,24.10
2010,08,17,12,02,24.20
2010,08,17,12,03,24.20
2010,08,17,12,04,24.20
2010,08,17,12,05,24.20
2010,08,17,12,06,24.30
2010,08,17,12,07,24.30
2010,08,17,12,08,24.30
2010,08,17,12,09,24.30
2010,08,17,12,10,24.30
2010,08,17,12,11,24.30
2010,08,17,12,12,24.30
2010,08,17,12,13,24.20
2010,08,17,12,14,24.20
2010,08,17,12,15,24.10
2010,08,17,12,16,24.10
2010,08,17,12,17,24.10
2010,08,17,12,18,24.10
2010,08,17,12,19,24.10
2010,08,17,12,20,24.10
2010,08,17,12,21,24.10
2010,08,17,12,22,24.10
2010,08,17,12,23,24.10
2010,08,17,12,24,24.10
2010,08,17,12,25,24.20
2010,08,17,12,26,24.30
2010,08,17,12,27,24.30
2010,08,17,12,28,24.40
2010,08,17,12,29,24.50
2010,08,17,12,30,24.50
2010,08,17,12,31,24.50
2010,08,17,12,32,24.60
2010,08,17,12,33,24.50
2010,08,17,12,34,24.50
2010,08,17,12,35,24.50
2010,08,17,12,36,24.50
2010,08,17,12,37,24.50
2010,08,17,12,38,24.50
2010,08,17,12,39,24.50
2010,08,17,12,40,24.60
2010,08,17,12,41,24.50
2010,08,17,12,42,24.50
2010,08,17,12,43,24.50
2010,08,17,12,44,24.40
2010,08,17,12,45,24.40
2010,08,17,12,46,24.30
2010,08,17,12,47,24.20
2010,08,17,12,48,24.10
2010,08,17,12,49,24.10
2010,08,17,12,50,24.10
2010,08,17,12,51,24.00
2010,08,17,12,52,24.00
2010,08,17,12,53,23.90
2010,08,17,12,54,23.70
2010,08,17,12,55,23.70
2010,08,17,12,56,23.70
2010,08,17,12,57,23.60
2010,08,17,12,58,23.60
2010,08,17,12,59,23.60
2010,08,17,13,00,23.60
2010,08,17,13,01,23.70
2010,08,17,13,02,23.80
2010,08,17,13,03,23.80
2010,08,17,13,04,23.80
2010,08,17,13,05,23.90
2010,08,17,13,06,24.00
2010,08,17,13,07,24.00
2010,08,17,13,08,24.10
2010,08,17,13,09,24.20
2010,08,17,13,10,24.20
2010,08,17,13,11,24.10
2010,08,17,13,12,24.20
2010,08,17,13,13,24.20
2010,08,17,13,14,24.10
2010,08,17,13,15,24.20
2010,08,17,13,16,24.20
2010,08,17,13,17,24.30
2010,08,17,13,18,24.40
2010,08,17,13,19,24.50
2010,08,17,13,20,24.50
2010,08,17,13,21,24.60
2010,08,17,13,22,24.50
2010,08,17,13,23,24.60
2010,08,17,13,24,24.60
2010,08,17,13,25,24.70
2010,08,17,13,26,24.70
2010,08,17,13,27,24.80
2010,08,17,13,28,24.80
2010,08,17,13,29,24.70
2010,08,17,13,30,24.70
2010,08,17,13,31,24.70
2010,08,17,13,32,24.60
2010,08,17,13,33,24.40
2010,08,17,13,34,24.20
2010,08,17,13,35,24.20
2010,08,17,13,36,24.20
2010,08,17,13,37,24.20
2010,08,17,13,38,24.20
2010,08,17,13,39,24.30
2010,08,17,13,40,24.30
2010,08,17,13,41,24.30
2010,08,17,13,42,24.30
2010,08,17,13,43,24.30
2010,08,17,13,44,24.30
2010,08,17,13,45,24.30
2010,08,17,13,46,24.30
2010,08,17,13,47,24.30
2010,08,17,13,48,24.30
2010,08,17,13,49,24.40
2010,08,17,13,50,24.50
2010,08,17,13,51,24.50
2010,08,17,13,52,24.60
2010,08,17,13,53,24.70
2010,08,17,13,54,24.70
2010,08,17,13,55,24.70
2010,08,17,13,56,24.80
2010,08,17,13,57,24.80
2010,08,17,13,58,24.90
2010,08,17,13,59,24.90
2010,08,17,14,00,24.90
2010,08,17,14,01,24.90
2010,08,17,14,02,24.90
2010,08,17,14,03,24.90
2010,08,17,14,04,24.90
2010,08,17,14,05,24.90
2010,08,17,14,06,24.70
2010,08,17,14,07,24.50
2010,08,17,14,08,24.50
2010,08,17,14,09,24.40
2010,08,17,14,10,24.50
2010,08,17,14,11,24.60
2010,08,17,14,12,24.70
2010,08,17,14,13,24.80
2010,08,17,14,14,24.90
2010,08,17,14,15,24.90
2010,08,17,14,16,25.00
2010,08,17,14,17,25.10
2010,08,17,14,18,25.10
2010,08,17,14,19,25.20
2010,08,17,14,20,25.20
2010,08,17,14,21,25.20
2010,08,17,14,22,25.20
2010,08,17,14,23,25.30
2010,08,17,14,24,25.40
2010,08,17,14,25,25.40
2010,08,17,14,26,25.50
2010,08,17,14,27,25.60
2010,08,17,14,28,25.70
2010,08,17,14,29,25.70
2010,08,17,14,30,25.80
2010,08,17,14,31,25.90
2010,08,17,14,32,25.90
2010,08,17,14,33,26.00
2010,08,17,14,34,26.20
2010,08,17,14,35,26.30
2010,08,17,14,36,26.40
2010,08,17,14,37,26.50
2010,08,17,14,38,26.50
2010,08,17,14,39,26.60
2010,08,17,14,40,26.70
2010,08,17,14,41,26.80
2010,08,17,14,42,26.80
2010,08,17,14,43,26.80
2010,08,17,14,44,26.80
2010,08,17,14,45,26.90
2010,08,17,14,46,26.90
2010,08,17,14,47,26.90
2010,08,17,14,48,26.90
2010,08,17,14,49,26.90
2010,08,17,14,50,26.90
2010,08,17,14,51,26.90
2010,08,17,14,52,26.90
2010,08,17,14,53,26.90
2010,08,17,14,54,27.00
2010,08,17,14,55,27.00
2010,08,17,14,56,27.00
2010,08,17,14,57,27.00
2010,08,17,14,58,27.00
2010,08,17,14,59,27.00
2010,08,17,15,00,27.10
2010,08,17,15,01,27.00
2010,08,17,15,02,26.90
2010,08,17,15,03,26.90
2010,08,17,15,04,26.90
2010,08,17,15,05,26.80
2010,08,17,15,06,26.70
2010,08,17,15,07,26.60
2010,08,17,15,08,26.50
2010,08,17,15,09,26.40
2010,08,17,15,10,26.40
2010,08,17,15,11,26.40
2010,08,17,15,12,26.50
2010,08,17,15,13,26.60
2010,08,17,15,14,26.70
2010,08,17,15,15,26.70
2010,08,17,15,16,26.80
2010,08,17,15,17,26.90
2010,08,17,15,18,27.00
2010,08,17,15,19,27.10
2010,08,17,15,20,27.00
2010,08,17,15,21,26.90
2010,08,17,15,22,26.90
2010,08,17,15,23,26.80
2010,08,17,15,24,26.80
2010,08,17,15,25,26.80
2010,08,17,15,26,26.80
2010,08,17,15,27,26.80
2010,08,17,15,28,26.80
2010,08,17,15,29,26.80
2010,08,17,15,30,26.90
2010,08,17,15,31,26.90
2010,08,17,15,32,26.90
2010,08,17,15,33,26.90
2010,08,17,15,34,26.90
2010,08,17,15,35,27.00
2010,08,17,15,36,27.10
2010,08,17,15,37,27.10
2010,08,17,15,38,27.10
2010,08,17,15,39,27.10
2010,08,17,15,40,27.20
2010,08,17,15,41,27.20
2010,08,17,15,42,27.20
2010,08,17,15,43,27.30
2010,08,17,15,44,27.30
2010,08,17,15,45,27.20
2010,08,17,15,46,27.10
2010,08,17,15,47,27.10
2010,08,17,15,48,27.00
2010,08,17,15,49,27.10
2010,08,17,15,50,27.10
2010,08,17,15,51,27.10
2010,08,17,15,52,27.20
2010,08,17,15,53,27.20
2010,08,17,15,54,27.20
2010,08,17,15,55,27.20
2010,08,17,15,56,27.30
2010,08,17,15,57,27.30
2010,08,17,15,58,27.40
2010,08,17,15,59,27.40
2010,08,17,16,00,27.50
2010,08,17,16,01,27.50
2010,08,17,16,02,27.50
2010,08,17,16,03,27.50
2010,08,17,16,04,27.50
2010,08,17,16,05,27.60
2010,08,17,16,06,27.50
2010,08,17,16,07,27.40
2010,08,17,16,08,27.40
2010,08,17,16,09,27.40
2010,08,17,16,10,27.40
2010,08,17,16,11,27.50
2010,08,17,16,12,27.60
2010,08,17,16,13,27.70
2010,08,17,16,14,27.80
2010,08,17,16,15,27.80
2010,08,17,16,16,27.90
2010,08,17,16,17,27.90
2010,08,17,16,18,27.90
2010,08,17,16,19,27.70
2010,08,17,16,20,27.50
2010,08,17,16,21,27.40
2010,08,17,16,22,27.40
2010,08,17,16,23,27.40
2010,08,17,16,24,27.40
2010,08,17,16,25,27.40
2010,08,17,16,26,27.40
2010,08,17,16,27,27.30
2010,08,17,16,28,27.30
2010,08,17,16,29,27.30
2010,08,17,16,30,27.30
2010,08,17,16,31,27.30
2010,08,17,16,32,27.20
2010,08,17,16,33,27.30
2010,08,17,16,34,27.30
2010,08,17,16,35,27.40
2010,08,17,16,36,27.50
2010,08,17,16,37,27.50
2010,08,17,16,38,27.60
2010,08,17,16,39,27.70
2010,08,17,16,40,27.70
2010,08,17,16,41,27.70
2010,08,17,16,42,27.70
2010,08,17,16,43,27.60
2010,08,17,16,44,27.60
2010,08,17,16,45,27.60
2010,08,17,16,46,27.60
2010,08,17,16,47,27.60
2010,08,17,16,48,27.60
2010,08,17,16,49,27.60
2010,08,17,16,50,27.60
2010,08,17,16,51,27.60
2010,08,17,16,52,27.60
2010,08,17,16,53,27.60
2010,08,17,16,54,27.60
2010,08,17,16,55,27.50
2010,08,17,16,56,27.50
2010,08,17,16,57,27.60
2010,08,17,16,58,27.70
2010,08,17,16,59,27.80
2010,08,17,17,00,27.80
2010,08,17,17,01,27.90
2010,08,17,17,02,27.90
2010,08,17,17,03,27.90
2010,08,17,17,04,27.80
2010,08,17,17,05,27.80
2010,08,17,17,06,27.70
2010,08,17,17,07,27.70
2010,08,17,17,08,27.60
2010,08,17,17,09,27.60
2010,08,17,17,10,27.50
2010,08,17,17,11,27.40
2010,08,17,17,12,27.40
2010,08,17,17,13,27.30
2010,08,17,17,14,27.20
2010,08,17,17,15,27.10
2010,08,17,17,16,27.10
2010,08,17,17,17,27.10
2010,08,17,17,18,27.00
2010,08,17,17,19,26.90